Location: Cussy
(47.0410°N, 4.6412°E)
Time: 03:00:28
(UTC+00:00)

CZ-4 R/B - Visible Passes

Search period start: 14 April 2021 00:00
Search period end: 24 April 2021 00:00
Orbit: 532 x 597 km, 97.7° (Epoch: 12 April)

Date Brightness Start Highest point End Pass type
(mag) Time Alt. Az. Time Alt. Az. Time Alt. Az.
14 Apr 5.0 19:52:17 10° W 19:52:39 10° W 19:53:02 10° W visible
15 Apr 5.0 19:52:31 10° W 19:52:49 10° W 19:53:07 10° W visible
16 Apr 5.1 19:52:48 10° W 19:52:59 10° W 19:53:09 10° W visible
